Regional Weather Roundup
Issued by NWS

Home | Current Version | Previous Version | Graphics & Text | Print | Product List | Glossary Off
Versions: 1 2 3 4 5 6 7 8 9 10 11 12 13 14 15 16 17 18 19 20 21 22 23 24 25 26 27 28 29 30 31 32 33 34 35 36 37 38 39 40 41 42 43 44 45 46 47 48 49 50

000
ASUS43 KDTX 210501
RWRMI
MICHIGAN HOURLY REGIONAL WEATHER ROUNDUP
NATIONAL WEATHER SERVICE DETROIT/PONTIAC MI
100 AM EDT SAT APR 21 2018

NOTE: "FAIR" INDICATES FEW OR NO CLOUDS BELOW 12,000 FEET WITH NO
SIGNIFICANT WEATHER AND/OR OBSTRUCTION TO VISIBILITY.

MIZ047>049-052>055-059>063-066>070-074>076-081>083-210600-
SOUTHEAST LOWER MICHIGAN

CITY           SKY/WX    TMP DP  RH WIND       PRES   REMARKS
ADRIAN         FAIR      38  27  64 CALM      30.46S
ALMA           FAIR      38  29  68 N6        30.45R WCI  34
ANN ARBOR      FAIR      33  26  75 CALM      30.45S
BAD AXE        FAIR      33  24  70 S3        30.47R
CARO           FAIR      34  21  60 CALM      30.46R
DETROIT CITY   FAIR      37  23  56 E5        30.47S WCI  33
DETROIT        FAIR      42  28  57 E5        30.46F
FLINT          FAIR      37  25  61 SE5       30.45S WCI  33
GROSSE ILE     FAIR      35  29  79 CALM      30.46S
HILLSDALE      FAIR      41  25  52 SE8       30.44R
HOWELL         FAIR      38  27  63 SE3       30.44S

CITY           SKY/WX    TMP DP  RH WIND       PRES   REMARKS
JACKSON        FAIR      42  24  49 SE5       30.44S
LAMBERTVILLE   FAIR      38  28  68 CALM      30.46R
LANSING        FAIR      40  27  59 CALM      30.45S
LAPEER         FAIR      32  29  88 CALM      30.46S
MASON          FAIR      42  19  39 CALM      30.45R
MONROE         FAIR      33  30  89 CALM      30.45S
MT. CLEMENS    FAIR      33  29  84 CALM        N/A
PONTIAC        FAIR      39  27  62 SE3       30.44F
PORT HOPE        N/A     31  23  72 CALM      30.45S
PORT HURON     FAIR      28  23  80 CALM      30.47S
TRI CITIES     FAIR      38  30  73 E5        30.46R WCI  34
MIDLAND        FAIR      33  28  82 CALM      30.46R
TROY           FAIR      41  22  48 CALM      30.48S
SAGINAW HB     FAIR      37  30  75 E3        30.46R
$$
MIZ043>046-050>051-056>058-064>065-071>073-077>080-210600-
SOUTHWEST LOWER MICHIGAN

CITY           SKY/WX    TMP DP  RH WIND       PRES   REMARKS
BATTLE CREEK   FAIR      40  24  53 CALM      30.45S
BENTON HARBOR  FAIR      31  23  72 CALM      30.45F
BIG RAPIDS     FAIR      32  18  55 CALM      30.45S
COLDWATER      FAIR      41  26  54 CALM      30.44S
FREMONT        FAIR      35  19  53 CALM      30.45S
HOLLAND        FAIR      36  21  54 CALM      30.45F
GRAND RAPIDS   FAIR      43  18  36 NW5       30.44F
IONIA          FAIR      42  22  45 W3        30.43S
KALAMAZOO      FAIR      39  20  46 N3        30.45S
LUDINGTON      FAIR      27  24  85 CALM      30.45S
MARSHALL       FAIR      35  24  62 CALM      30.44S
MOUNT PLEASANT FAIR      39  28  65 CALM      30.46R
MUSKEGON       FAIR      33  21  61 E3        30.46S
SOUTH HAVEN    FAIR      31  22  69 CALM      30.45F
$$
MIZ016>042-210600-
NORTHERN LOWER MICHIGAN

CITY           SKY/WX    TMP DP  RH WIND       PRES   REMARKS
ALPENA         FAIR      27  22  81 CALM      30.46S
BEAVER ISLAND  FAIR      30  25  80 CALM      30.45S
BELLAIRE       FAIR      27  23  83 CALM      30.47S
CADILLAC       FAIR      27  20  75 N3        30.44R
CHARLEVOIX     FAIR      30  21  71 CALM      30.48F
FRANKFORT      FAIR      30  21  69 CALM      30.46S
GAYLORD        FAIR      28  21  75 CALM      30.44R
HARBOR SPRINGS FAIR      32  20  62 CALM      30.45F
HOUGHTON LAKE  FAIR      28  21  75 CALM      30.46R
MANISTEE       FAIR      26  21  81 CALM      30.46R
OSCODA         FAIR      28  20  72 W3        30.47R
PELLSTON       FAIR      28  21  75 CALM      30.45F
ROGERS CITY    FAIR      34  16  47 W3        30.46R
TRAVERSE CITY  FAIR      31  23  72 CALM      30.45S
$$
MIZ007>008-015-210600-
EASTERN UPPER MICHIGAN

CITY           SKY/WX    TMP DP  RH WIND       PRES   REMARKS
KINROSS        FAIR      36  14  40 CALM      30.44F
MACKINAC ISLAN FAIR      34  21  60 SW9       30.44S WCI  26
NEWBERRY       FAIR      32  20  62 CALM      30.42S
S. S. MARIE    FAIR      38  15  39 CALM      30.43F
MUNISING         N/A     34  23  64 S9        30.41S WCI  27
$$
MIZ004>006-011>014-085-210600-
CENTRAL UPPER MICHIGAN

CITY           SKY/WX    TMP DP  RH WIND       PRES   REMARKS
MANISTIQUE     FAIR      28  26  95 S10       30.43S WCI  18
ESCANABA       FAIR      29  25  85 CALM      30.43S
MENOMINEE      FAIR      40  19  43 SW3       30.43S
SAWYER-GWINN   FAIR      32  22  66 CALM      30.41R
$$
MIZ001>003-009>011-084-210600-
WESTERN UPPER MICHIGAN

CITY           SKY/WX    TMP DP  RH WIND       PRES   REMARKS
IRON MOUNTAIN  FAIR      31  22  69 CALM      30.38R
HOUGHTON       FAIR      34  14  43 CALM      30.39S
COPPER HARBOR    N/A     38  14  37 W8        30.40R WCI  32
IRONWOOD       FAIR      31  23  72 CALM      30.42S
$$

ABBREVIATIONS USED IN REMARKS
   TC - TEMPERATURE IN CELSIUS
  WCI - WIND CHILL INDEX
   HX - HEAT INDEX
  VSB - VISIBILITY




USA.gov is the U.S. government's official web portal to all federal, state and local government web resources and services.